Regional Weather Roundup
Issued by NWS

Home | Current Version | Previous Version | Text Only | Print | Product List | Glossary Off
Versions: 1 2 3 4 5 6 7 8 9 10 11 12 13 14 15 16 17 18 19 20 21 22 23 24 25 26 27 28 29 30 31 32 33 34 35 36 37 38 39 40 41 42 43 44 45 46 47 48 49 50

000
ASUS45 KTFX 290104
RWRMT
MONTANA REGIONAL WEATHER ROUNDUP
NATIONAL WEATHER SERVICE GREAT FALLS MT
700 PM MDT FRI AUG 28 2015

NOTE: "FAIR" INDICATES FEW OR NO CLOUDS BELOW 12000 FEET WITH NO
SIGNIFICANT WEATHER AND/OR OBSTRUCTIONS TO VISIBILITY.

MTZ001>007-043-290200-
WEST OF THE DIVIDE

CITY           SKY/WX    TMP DP  RH WIND       PRES   REMARKS
KALISPELL      CLOUDY    80  39  23 W7        29.96R SMOKE
MISSOULA       CLOUDY    75  43  31 S7        30.01R HAZE
BUTTE          CLOUDY    80  32  17 W7        30.09F HAZE
MULLAN PASS    CLOUDY    61  40  45 CALM      30.15S
DEER LODGE       N/A     79  39  24 NW24G35   30.07S
EUREKA           N/A     75  43  31 SE10      29.96F
HAMILTON         N/A     77  43  29 NE6       30.02R
LIBBY            N/A     79  43  27 CALM      29.95S
$$

MTZ008-052>055-290200-
SOUTHWEST MONTANA

CITY           SKY/WX    TMP DP  RH WIND       PRES   REMARKS
BOZEMAN        PTSUNNY   79  47  32 E7        30.02F
DILLON         CLOUDY    79  41  25 W5        30.05F
W YELLOWSTONE  MOSUNNY   75  28  17 SW10      30.23F
$$

MTZ009-010-012-014-046-048-049-054-290200-
EAST SLOPES AND CENTRAL MONTANA

CITY           SKY/WX    TMP DP  RH WIND       PRES   REMARKS
CUT BANK       CLOUDY    77  38  24 W31G46    29.95R HAZE
GREAT FALLS    CLOUDY    84  36  18 S7        29.91F HAZE
MALMSTROM AFB  CLOUDY    85  34  16 S9        29.90F
HELENA         PTSUNNY   86  42  21 NW13G18   29.95R
$$

MTZ011-013-016-021-045-047-050-051-290200-
NORTH CENTRAL MONTANA

CITY           SKY/WX    TMP DP  RH WIND       PRES   REMARKS
HAVRE          PTSUNNY   79  50  36 E8        29.83F HAZE
LEWISTOWN      PTSUNNY   80  43  26 E8        30.00F
N BAR RANCH      N/A     79  34  19 CALM      30.06S
CHINOOK          N/A     81  52  36 E3        29.85F
FORT BENTON      N/A     88  36  15 S5        29.86F
$$

MTZ017>020-022>027-061-062-290200-
NORTHEAST MONTANA

CITY           SKY/WX    TMP DP  RH WIND       PRES   REMARKS
GLASGOW        CLOUDY    79  41  25 NW7       29.90S HAZE
JORDAN           N/A     85  45  24 N5        29.93S
SIDNEY         PTCLDY    75  48  38 W6        29.90S
WOLF POINT     CLOUDY    77  51  40 S3        29.89S HAZE
PLENTYWOOD       N/A     81  46  30 W8        29.89S
POPLAR           N/A     82  43  24 SW3       29.90S
$$

MTZ028>42-056>058-290200-
SOUTHCENTRAL AND SOUTHEAST MONTANA

CITY           SKY/WX    TMP DP  RH WIND       PRES   REMARKS
BAKER          CLOUDY    77  47  34 W7        29.99S HAZE
BILLINGS       MOCLDY    86  39  19 S5        30.00F HAZE
LIVINGSTON     MOSUNNY   83  35  18 CALM      30.03F
MILES CITY     CLOUDY    83  42  23 SW7       29.95F HAZE
FORSYTH          N/A     88  39  18 E3        29.96S
$$

REGIONAL REPORTS...DAKOTAS

CITY           SKY/WX    TMP DP  RH WIND       PRES   REMARKS
WILLISTON      MOCLDY    82  48  30 W7        29.89R HAZE
MINOT          CLEAR     78  60  53 CALM      29.85S
DICKINSON      MOCLDY    79  52  38 W5        29.92S HAZE
BISMARCK       PTCLDY    78  68  71 SE6       29.88S
GRAND FORKS    MOCLDY    76  68  76 S9        29.83R
FARGO          CLEAR     78  67  68 S10       29.89R
BUFFALO SD       N/A     79  53  40 W6        29.94S
RAPID CITY     PTCLDY    78  64  61 CALM      30.03S
$$

REGIONAL REPORTS...WYOMING/IDAHO/WASHINGTON

CITY           SKY/WX    TMP DP  RH WIND       PRES   REMARKS
GILLETTE       PTCLDY    82  43  25 CALM      30.10R
SHERIDAN       PTCLDY    78  54  43 CALM      30.06S HAZE
BUFFALO WY     PTCLDY    79  42  26 N6        30.14S
CODY           CLOUDY    81  39  22 SE6       30.11S
YELLOWSTONE LA   N/A     69  31  24 VRB3      30.36F
IDAHO FALLS    PTSUNNY   85  41  21 S13       30.08F
SALMON         CLOUDY    84  45  24 N5        29.96F
BOISE          CLOUDY    87  41  19 NW13      29.90F
SPOKANE        CLOUDY    79  42  26 S13       29.92F
$$

REGIONAL REPORTS...ALBERTA

CITY           SKY/WX    TMP DP  RH WIND       PRES   REMARKS
$$

REGIONAL REPORTS...SASKATCHEWAN

CITY           SKY/WX    TMP DP  RH WIND       PRES   REMARKS
SWIFT CURRENT  CLEAR     79  48  34 S6        29.85F HAZE
$$


USA.gov is the U.S. government's official web portal to all federal, state and local government web resources and services.